Location: Baix
(44.7118°N, 4.7648°E)
Time: 17:08:15
(UTC+00:00)

CZ-2D R/B - Pass Details

Date: 07 August 2020
Orbit: 792 x 845 km, 98.7° (Epoch: 23 September)

Event Time Altitude Azimuth Distance (km) Brightness Sun altitude
Rises 02:10:05 0° 7° (N) 3,408 6.4 -20.8°
Reaches altitude 10° 02:12:35 10° 360° (N) 2,473 5.3 -20.5°
Maximum altitude 02:17:38 39° 293° (WNW) 1,247 2.9 -20.0°
Enters shadow 02:19:23 31° 254° (WSW) 1,448 3.0 -19.8°
